Probability
0 0 0 0 0 0 0 0 0 0 0 0 0 0 0 0 3 3 3 3 0 3 0 3 3 3 3 3 3 0 0 6 6 6 3 0 0 0 0 0 0 0 0 0
0 0 0 0 0 0 0 0 0 0 0 0 0 0 0 0 0 3 3 3 0 0 0 3 3 3 3 3 3 3 0 3 3 3 3 3 0 0 0 0 0 0 0 0
0 0 0 0 0 0 0 0 0 0 0 0 0 0 0 0 0 0 0 0 0 0 0 0 0 0 0 3 3 3 0 0 0 0 0 3 0 0 3 0 0 0 0 0
0 0 0 0 0 0 0 0 0 0 0 0 0 0 0 0 0 0 0 0 0 0 0 0 0 0 0 0 0 0 0 0 0 0 0 3 3 3 3 3 3 6 0 0
0 0 0 0 0 0 0 0 0 0 0 0 0 0 0 0 0 0 0 3 0 0 0 0 0 0 0 0 0 0 0 0 0 0 0 0 3 3 3 3 3 3 3 0
0 0 0 0 0 0 0 0 0 0 0 0 0 0 0 0 0 0 0 3 0 0 0 0 0 0 0 0 0 0 0 0 0 0 0 3 0 0 3 3 3 3 3 3
0 0 0 0 0 0 0 0 0 0 0 0 0 0 0 0 3 0 0 0 0 0 0 0 0 0 0 0 0 0 0 0 0 0 0 0 3 0 3 3 3 3 3 3
0 0 0 0 0 0 0 0 0 0 0 0 0 0 3 3 3 3 3 3 3 3 3 0 0 0 3 3 0 0 0 0 0 0 0 0 0 3 3 3 3 3 3 3
0 0 0 0 0 0 0 0 0 0 0 0 0 0 3 3 3 3 3 0 0 0 0 0 0 0 0 0 0 0 0 0 0 0 0 0 0 3 3 3 3 3 3 3
0 0 0 0 0 0 0 0 0 0 0 0 0 3 0 0 0 0 0 0 0 0 0 0 0 0 0 0 0 0 0 0 0 0 0 0 0 0 3 3 3 3 3 0
0 0 0 0 0 0 0 0 0 0 0 0 0 0 0 0 0 0 0 0 0 0 0 0 0 0 0 0 0 0 0 0 0 0 0 0 0 0 0 0 0 0 0 0
0 0 0 0 0 0 0 0 0 0 0 0 0 0 0 0 0 0 0 0 0 0 0 0 0 0 0 0 0 0 0 0 0 0 0 0 0 0 0 0 0 0 0 0
0 0 0 0 0 0 0 0 0 0 0 0 0 0 0 0 0 0 0 0 0 0 0 0 0 0 0 0 0 0 0 0 3 0 0 0 0 0 0 0 0 0 0 0
0 0 0 0 0 0 0 0 0 0 0 0 0 0 0 0 0 0 0 0 0 0 0 0 0 0 0 0 0 0 0 0 0 3 0 0 0 0 0 0 0 0 0 0
0 0 0 0 0 0 0 0 0 0 0 0 0 0 0 0 0 0 0 0 0 0 0 0 0 0 0 0 0 0 0 0 0 0 0 0 0 0 0 0 0 0 0 0
0 0 0 0 0 0 0 0 0 0 0 0 0 0 0 0 0 0 0 0 0 0 0 0 0 0 0 0 0 0 0 0 0 0 0 0 0 0 0 0 0 0 0 0
0 0 0 0 0 0 0 0 0 0 0 0 0 0 0 0 0 0 0 0 0 0 0 0 0 0 0 0 0 0 0 0 0 0 0 0 0 0 0 0 0 0 0 0
0 0 0 0 0 0 0 0 0 0 0 0 0 0 0 0 0 0 0 0 0 0 0 0 0 0 0 0 0 0 0 0 0 0 0 0 0 0 0 0 0 0 0 0
0 0 0 0 0 0 0 0 0 0 0 0 0 0 0 0 0 0 0 0 0 0 0 0 0 0 0 0 0 0 3 0 0 0 0 0 0 0 0 0 0 0 0 0
0 0 0 0 0 0 0 0 0 0 0 0 0 0 0 0 0 0 0 0 0 0 0 0 0 0 0 0 0 0 3 3 0 0 0 0 0 0 0 0 0 0 0 0
0 0 0 0 0 0 0 0 0 0 0 0 0 0 0 0 0 0 0 0 0 0 0 0 0 0 0 0 0 3 3 3 0 0 0 0 0 0 0 0 0 0 0 0
0 0 0 0 0 0 0 0 0 0 0 0 0 0 0 0 0 0 0 0 0 0 0 0 0 0 0 0 0 3 3 0 0 0 0 0 0 0 0 0 0 0 0 0
0 0 0 0 0 0 0 0 0 0 0 0 0 0 0 0 0 0 0 0 0 0 0 0 0 0 0 0 0 3 0 0 0 0 0 0 0 0 0 0 0 0 0 0
0 0 0 0 0 0 0 0 0 0 0 0 0 0 0 0 0 0 0 0 0 0 0 0 0 0 0 3 3 0 0 0 0 0 0 0 0 0 0 0 0 0 0 0
0 0 0 0 0 0 0 0 0 0 0 0 0 0 0 0 0 0 0 0 0 0 0 0 0 0 0 0 0 0 0 0 0 0 0 0 0 0 0 0 0 0 0 0
0 0 0 0 0 0 0 0 0 0 0 0 0 0 0 0 0 0 0 0 0 0 0 0 0 0 0 0 0 0 0 0 0 0 0 0 0 0 0 0 0 0 0 0
0 0 0 0 0 0 0 0 0 0 0 0 0 0 0 0 0 0 0 0 0 0 0 0 0 0 0 0 0 0 0 0 0 0 0 0 0 0 0 0 0 0 0 0
Height
5836 5837 5838 5839 5840 5841 5842 5844 5845 5846 5847 5847 5847 5848 5848 5849 5850 5850 5851 5852 5853 5854 5855 5856 5857 5858 5860 5861 5862 5863 5864 5865 5866 5867 5868 5868 5868 5869 5869 5869 5869 5869 5868 5868
5832 5833 5834 5835 5836 5837 5839 5840 5841 5842 5844 5844 5845 5845 5846 5846 5848 5848 5849 5850 5851 5852 5853 5854 5855 5856 5857 5859 5860 5861 5862 5863 5863 5864 5865 5865 5866 5866 5866 5865 5865 5865 5865 5865
5828 5828 5829 5831 5833 5834 5835 5836 5837 5839 5841 5841 5842 5843 5843 5844 5845 5846 5847 5848 5848 5849 5850 5851 5852 5854 5855 5856 5857 5858 5859 5860 5861 5861 5862 5862 5862 5862 5862 5862 5862 5862 5861 5861
5822 5824 5825 5829 5829 5829 5830 5832 5833 5835 5836 5838 5839 5839 5840 5841 5842 5843 5844 5845 5846 5847 5848 5849 5850 5851 5852 5853 5854 5855 5856 5857 5857 5858 5859 5859 5859 5859 5859 5858 5858 5858 5857 5857
5817 5819 5820 5823 5824 5825 5826 5828 5829 5831 5832 5834 5835 5836 5837 5838 5839 5840 5841 5842 5843 5844 5845 5846 5847 5848 5849 5850 5851 5852 5853 5853 5854 5854 5855 5855 5855 5855 5854 5854 5854 5854 5853 5853
5812 5813 5815 5818 5819 5819 5822 5823 5825 5826 5828 5829 5831 5833 5834 5834 5835 5836 5838 5839 5840 5841 5842 5843 5844 5845 5846 5847 5848 5848 5849 5849 5850 5850 5850 5850 5850 5850 5850 5849 5849 5849 5848 5848
5806 5808 5810 5813 5813 5815 5818 5820 5820 5822 5823 5825 5827 5829 5830 5831 5832 5833 5834 5835 5837 5838 5839 5840 5841 5841 5842 5843 5844 5844 5845 5845 5845 5846 5846 5846 5846 5845 5845 5845 5844 5844 5843 5842
5801 5803 5807 5807 5808 5810 5812 5813 5815 5817 5819 5820 5822 5824 5825 5827 5828 5829 5831 5832 5833 5834 5835 5836 5837 5838 5839 5839 5840 5840 5840 5841 5841 5841 5841 5841 5841 5840 5840 5839 5839 5838 5837 5837
5796 5799 5800 5801 5803 5804 5806 5808 5810 5812 5814 5815 5817 5819 5821 5822 5824 5825 5827 5828 5829 5830 5831 5832 5833 5834 5834 5835 5835 5836 5836 5836 5836 5836 5836 5835 5835 5835 5834 5834 5833 5832 5831 5831
5788 5791 5793 5795 5796 5798 5800 5802 5804 5806 5808 5810 5812 5814 5816 5818 5819 5821 5822 5824 5825 5826 5827 5827 5828 5829 5830 5830 5830 5831 5831 5831 5831 5831 5830 5830 5830 5829 5829 5828 5827 5827 5826 5824
5781 5784 5786 5788 5790 5792 5794 5796 5798 5800 5802 5804 5806 5809 5811 5813 5814 5816 5817 5819 5820 5821 5822 5823 5823 5824 5825 5825 5825 5825 5825 5825 5825 5825 5825 5824 5824 5823 5823 5822 5821 5821 5820 5818
5775 5778 5780 5782 5784 5786 5788 5790 5792 5794 5796 5798 5801 5803 5805 5807 5809 5810 5812 5813 5815 5816 5817 5818 5818 5819 5819 5820 5820 5820 5820 5820 5820 5820 5819 5819 5818 5818 5817 5816 5815 5814 5813 5812
5767 5770 5772 5774 5777 5779 5781 5783 5785 5788 5790 5792 5795 5797 5799 5801 5803 5805 5806 5808 5809 5810 5811 5812 5813 5814 5814 5814 5815 5815 5815 5814 5814 5814 5814 5813 5813 5812 5811 5811 5809 5808 5807 5805
5759 5762 5765 5767 5770 5772 5774 5776 5779 5781 5784 5786 5788 5791 5793 5795 5797 5798 5800 5802 5803 5805 5806 5807 5807 5808 5808 5809 5809 5809 5809 5809 5808 5808 5808 5807 5806 5806 5805 5804 5803 5802 5800 5798
5752 5754 5757 5760 5762 5765 5767 5769 5772 5775 5777 5779 5782 5784 5786 5788 5790 5792 5794 5796 5797 5798 5799 5800 5801 5802 5802 5802 5803 5802 5802 5802 5802 5802 5801 5800 5800 5799 5798 5797 5796 5795 5793 5791
5744 5746 5749 5752 5755 5757 5759 5762 5764 5767 5770 5772 5775 5777 5779 5782 5784 5786 5787 5789 5790 5792 5793 5794 5795 5795 5795 5796 5796 5796 5795 5795 5795 5795 5794 5794 5793 5792 5791 5790 5788 5787 5785 5783
5735 5738 5741 5744 5747 5749 5752 5754 5756 5759 5762 5765 5767 5770 5772 5774 5776 5778 5780 5782 5783 5785 5786 5787 5787 5788 5788 5788 5788 5788 5788 5788 5788 5787 5787 5786 5785 5784 5783 5782 5780 5778 5776 5774
5727 5730 5733 5736 5739 5741 5743 5746 5748 5751 5753 5756 5759 5762 5764 5766 5769 5771 5772 5774 5776 5777 5778 5779 5780 5780 5780 5781 5781 5781 5781 5780 5780 5780 5779 5778 5777 5776 5774 5773 5771 5769 5767 5765
5718 5721 5724 5727 5729 5732 5735 5738 5740 5743 5745 5748 5750 5753 5755 5758 5760 5762 5764 5766 5767 5769 5770 5771 5771 5772 5772 5772 5772 5773 5772 5772 5772 5771 5770 5769 5768 5767 5766 5764 5762 5760 5758 5755
5708 5711 5714 5717 5720 5723 5726 5729 5732 5734 5737 5739 5742 5744 5747 5749 5752 5754 5756 5757 5759 5760 5761 5762 5763 5763 5763 5763 5764 5764 5764 5764 5763 5763 5762 5761 5759 5758 5757 5755 5753 5750 5748 5746
5699 5702 5705 5709 5712 5714 5717 5720 5723 5726 5728 5730 5732 5735 5738 5740 5742 5745 5747 5748 5750 5751 5752 5753 5754 5754 5754 5755 5755 5755 5755 5755 5754 5754 5753 5752 5751 5749 5747 5745 5743 5741 5738 5736
5690 5693 5697 5700 5703 5705 5708 5711 5713 5716 5718 5721 5723 5726 5728 5730 5733 5735 5737 5739 5740 5742 5743 5744 5745 5745 5746 5746 5746 5746 5746 5746 5745 5744 5744 5743 5741 5740 5738 5736 5734 5731 5729 5726
5681 5684 5687 5691 5694 5696 5699 5701 5704 5707 5709 5711 5714 5716 5718 5721 5723 5725 5727 5729 5731 5732 5733 5734 5735 5736 5736 5736 5736 5737 5737 5736 5736 5735 5734 5733 5732 5730 5728 5726 5724 5721 5719 5716
5671 5675 5678 5681 5684 5687 5690 5692 5695 5697 5700 5702 5704 5706 5709 5711 5713 5715 5717 5719 5721 5722 5723 5724 5725 5726 5726 5727 5726 5726 5726 5726 5726 5725 5724 5723 5721 5719 5717 5715 5713 5711 5708 5705
5662 5665 5669 5672 5675 5678 5681 5683 5686 5688 5690 5692 5694 5696 5699 5701 5703 5705 5707 5709 5710 5712 5713 5714 5715 5715 5716 5716 5716 5716 5716 5716 5715 5714 5713 5712 5710 5708 5706 5704 5702 5700 5697 5694
5653 5656 5659 5663 5665 5668 5671 5674 5676 5678 5681 5683 5685 5687 5689 5691 5693 5695 5697 5698 5699 5701 5702 5703 5704 5705 5705 5705 5705 5705 5705 5705 5704 5703 5702 5701 5699 5697 5695 5693 5691 5688 5686 5683
5644 5647 5650 5653 5656 5659 5661 5664 5666 5669 5671 5673 5675 5677 5679 5681 5683 5684 5686 5687 5689 5690 5691 5692 5693 5694 5694 5694 5694 5694 5694 5693 5693 5692 5690 5689 5687 5686 5684 5682 5679 5677 5674 5671
Wind_Speed
15 15 15 14 14 14 13 13 12 11 10 9 10 10 10 9 9 9 9 9 8 8 8 9 9 9 9 9 9 10 10 10 10 10 10 10 11 10 11 11 11 11 11 11
16 16 16 15 15 15 14 14 13 13 11 10 10 11 10 10 10 9 9 9 8 8 9 10 10 10 10 10 10 10 10 10 10 10 10 11 11 12 13 13 12 12 12 13
18 18 17 17 15 15 15 15 15 14 12 11 12 12 11 11 10 10 10 9 9 9 9 10 11 11 11 11 11 11 11 11 11 11 11 11 11 11 12 12 13 13 13 13
19 18 19 17 16 16 16 16 16 15 14 13 13 13 12 12 12 11 11 10 10 10 10 10 11 12 11 12 12 11 11 11 12 13 13 13 13 13 13 13 14 14 14 14
20 19 19 18 18 17 17 16 16 16 15 15 14 14 13 12 13 13 12 11 11 11 11 12 12 12 12 12 12 12 13 13 13 13 14 14 14 14 15 15 15 15 16 16
21 20 19 19 19 18 17 17 17 16 16 15 15 14 13 13 13 13 13 13 12 12 12 12 13 13 13 13 13 13 13 14 14 14 15 15 15 15 15 16 16 16 17 18
21 20 20 19 19 19 18 18 17 17 16 16 16 15 15 14 14 13 13 13 13 13 13 13 13 13 13 14 14 14 14 14 14 15 15 16 16 16 17 17 17 17 18 19
22 21 20 20 20 19 19 19 19 18 17 17 16 17 16 15 14 14 13 14 14 13 13 14 14 14 14 14 14 14 15 15 15 16 16 17 17 18 18 18 18 19 20 20
24 22 22 21 21 20 20 20 20 19 18 18 18 18 18 16 15 15 14 14 14 14 14 14 14 14 15 15 15 15 15 16 16 16 17 17 18 18 18 19 20 21 21 21
25 24 23 22 21 21 21 21 21 21 20 20 20 20 19 18 17 16 16 15 15 15 15 15 15 15 15 16 16 16 16 16 16 17 17 18 18 18 19 20 20 20 21 21
27 25 24 23 23 23 23 22 22 22 21 21 21 20 20 19 18 18 17 17 16 16 16 16 16 16 16 16 17 17 17 18 18 18 18 18 18 18 19 19 20 20 21 22
28 26 25 25 24 24 23 23 23 23 23 23 22 21 21 21 20 19 18 18 18 18 17 17 17 17 16 16 17 17 17 17 18 18 18 18 18 18 18 19 19 21 22 23
28 27 27 26 25 25 24 24 24 24 24 24 24 23 22 22 21 20 20 19 19 19 19 18 18 18 17 17 18 18 18 18 18 18 19 19 19 19 19 19 20 21 22 23
28 27 27 27 26 26 25 25 24 24 25 25 24 24 23 23 22 22 21 21 21 21 20 20 19 19 18 19 19 19 19 20 20 19 20 20 20 20 20 20 21 22 23 24
27 27 27 27 27 27 27 27 26 25 25 26 26 26 25 25 24 23 23 22 22 22 21 21 20 20 20 21 21 21 21 21 21 21 21 21 21 22 22 23 23 24 24 25
28 28 28 28 27 27 28 29 28 28 27 27 27 27 26 26 26 25 25 24 23 23 22 22 22 22 23 23 23 23 23 23 23 23 23 23 23 24 24 25 26 26 27 28
30 29 29 28 28 29 29 30 29 30 30 29 28 28 27 26 26 26 26 25 25 24 24 24 24 24 24 24 24 24 24 24 24 25 25 25 25 26 27 27 28 29 29 30
31 31 31 30 30 30 30 30 30 30 31 31 31 30 29 28 28 27 27 27 27 27 26 26 25 26 26 26 25 25 25 25 26 26 26 26 27 28 28 29 29 30 30 31
32 31 31 31 30 31 31 31 30 30 29 30 31 31 30 30 29 28 28 28 28 28 27 27 27 27 28 28 27 27 26 27 27 27 27 28 28 28 29 30 30 31 32 32
33 32 32 32 31 31 31 31 31 31 31 31 31 31 31 30 30 29 29 29 29 29 29 28 28 28 29 28 27 27 27 27 27 27 27 28 28 29 29 30 30 31 32 33
32 32 32 31 31 31 31 31 32 32 32 32 32 32 32 32 32 31 30 30 30 30 30 29 29 29 28 28 28 28 28 28 28 28 28 29 29 29 30 30 31 31 32 32
32 32 32 32 32 32 31 32 32 32 32 32 32 32 32 32 32 32 32 32 31 31 31 30 30 29 29 29 29 29 29 29 29 29 29 29 30 31 31 32 32 33 33 34
32 32 32 32 32 32 32 32 32 32 32 32 32 33 32 33 32 32 32 32 32 32 32 31 31 30 31 31 31 31 31 31 31 31 31 31 31 32 33 33 33 34 35 35
32 32 32 32 32 31 31 31 32 32 32 32 32 32 33 33 33 33 34 34 34 33 32 32 32 32 32 32 32 32 32 32 32 32 32 33 33 33 33 34 34 35 36 36
32 32 32 32 32 32 31 31 31 32 32 32 32 32 33 33 34 34 34 34 35 34 34 33 33 33 33 33 32 32 33 33 33 33 34 34 35 35 35 35 36 36 37 37
32 32 31 31 31 31 31 32 32 32 32 32 33 33 33 34 34 34 34 35 35 34 34 34 34 34 34 34 33 33 33 33 33 34 35 36 36 36 36 37 37 37 38 38
31 31 31 31 31 32 32 32 32 32 32 32 32 32 33 33 34 34 34 34 35 35 35 34 34 34 34 34 34 34 34 35 35 36 37 36 36 37 37 37 37 38 38 38
Wind_Direction
250 250 249 247 246 246 248 250 250 250 248 247 248 248 247 248 249 247 248 248 242 237 236 232 233 236 234 231 232 233 234 236 243 245 249 253 258 262 265 269 268 272 273 276
251 250 249 248 246 247 247 247 247 250 248 243 248 248 248 246 247 249 249 248 243 241 241 236 235 238 237 234 235 237 238 240 246 250 254 259 262 265 267 270 270 271 272 276
251 250 250 248 247 247 248 247 247 249 248 243 245 248 249 247 247 246 244 245 243 241 240 238 239 239 238 236 239 242 245 247 250 254 258 262 266 268 272 273 272 272 275 277
251 251 248 248 248 247 246 245 246 249 247 241 242 246 248 248 247 245 242 242 243 243 241 241 242 239 239 241 243 246 248 251 255 257 260 263 267 270 274 275 275 275 275 276
249 250 249 246 246 247 246 244 244 245 244 241 243 247 248 250 247 243 237 237 244 247 244 245 243 240 241 245 248 250 253 255 258 259 261 263 266 270 273 275 275 276 277 277
247 247 247 246 245 246 245 245 242 242 242 243 244 247 249 250 246 240 238 238 244 246 245 246 245 244 244 248 250 254 257 258 261 262 262 265 268 270 273 275 276 276 277 278
245 246 246 246 245 244 243 242 241 243 244 244 246 246 247 246 244 242 241 241 244 246 247 249 250 248 248 250 252 256 258 259 261 263 265 268 270 272 274 275 276 279 279 279
245 246 246 245 244 242 242 242 242 244 245 245 245 244 244 240 241 244 244 243 245 248 250 252 252 252 252 254 255 256 259 261 263 264 267 269 271 274 275 275 276 278 280 280
244 245 246 245 245 244 245 244 243 242 243 244 243 242 241 240 243 245 245 246 248 251 255 255 254 254 255 257 258 259 262 265 266 267 269 270 272 275 276 277 278 279 280 281
242 242 244 244 245 245 245 244 243 241 242 242 242 242 239 240 243 244 245 248 252 256 258 258 258 258 257 259 261 263 265 268 269 268 269 271 272 274 277 279 279 282 282 284
242 242 243 244 245 245 245 244 242 241 239 240 239 237 237 241 243 245 247 248 251 255 257 258 259 259 259 260 261 264 266 267 267 269 271 272 274 277 278 278 277 280 283 283
241 242 245 245 244 243 242 242 241 239 240 240 238 237 238 241 244 245 246 247 250 252 254 257 260 261 259 261 264 265 266 267 268 270 271 273 274 276 279 281 281 281 282 284
241 242 243 244 243 241 240 239 238 235 235 237 237 239 241 242 243 244 245 248 250 252 254 257 259 261 262 265 267 268 269 271 271 271 273 273 272 273 277 279 282 285 286 287
242 242 242 242 243 241 240 239 238 236 234 236 237 239 242 243 244 244 245 249 250 252 255 257 259 261 264 266 268 269 269 271 272 273 275 278 278 276 277 280 284 286 288 289
241 242 242 242 243 242 241 241 240 238 236 237 238 240 242 244 245 245 246 248 252 254 255 257 259 262 265 267 268 269 269 270 272 274 277 280 280 281 281 282 284 286 288 290
242 243 242 242 242 243 242 242 242 241 240 240 241 242 244 246 247 248 248 249 250 252 255 257 260 263 267 269 269 271 272 271 272 274 277 279 279 280 281 283 284 286 289 291
245 244 244 244 244 243 242 242 242 243 242 242 243 243 245 247 248 249 249 249 251 253 255 258 261 264 268 269 270 271 272 272 273 274 276 278 280 281 282 284 285 287 288 290
243 243 242 243 244 243 242 241 241 242 243 243 244 244 245 246 246 248 248 249 251 253 256 259 262 265 268 268 269 270 271 272 274 276 277 279 280 282 284 285 286 287 289 290
242 243 243 243 244 244 242 242 241 241 242 243 243 243 244 245 245 246 248 250 252 254 257 260 262 265 267 268 268 269 271 273 275 276 278 279 281 282 284 285 287 288 290 291
243 243 242 242 243 243 242 242 242 243 243 243 244 244 244 244 245 246 249 250 252 255 258 260 263 266 268 267 268 270 271 272 275 277 279 280 282 284 285 287 288 289 291 292
243 242 241 240 241 242 242 242 243 244 245 245 246 246 245 245 246 247 249 251 252 255 258 261 263 266 267 267 268 270 270 272 275 277 279 281 282 284 286 288 290 291 292 293
240 241 241 240 241 242 243 243 244 244 245 245 246 246 246 247 248 249 251 252 253 255 258 261 263 264 266 267 268 269 270 272 275 277 279 280 282 284 286 288 289 291 292 293
237 239 239 239 241 243 245 245 245 245 245 245 246 246 246 247 248 250 252 252 253 256 258 259 262 264 265 267 268 270 271 273 275 276 278 280 282 284 287 288 290 291 292 293
235 237 238 239 240 242 244 244 245 246 246 246 247 247 247 248 249 250 251 252 253 256 258 259 262 264 267 268 269 270 271 273 274 276 278 280 282 284 286 288 289 291 292 293
237 237 238 239 239 240 242 244 246 247 247 248 248 249 250 250 251 253 253 253 255 257 259 260 262 264 267 269 270 271 273 274 275 277 279 281 283 284 285 287 290 291 292 293
237 237 238 239 240 241 243 245 246 248 249 250 250 250 250 251 252 253 254 254 255 256 257 259 261 264 266 267 268 271 273 274 275 278 280 281 282 284 286 287 289 290 292 293
238 238 238 240 241 243 245 246 247 249 249 249 250 251 251 252 252 252 253 254 255 255 256 258 261 264 266 267 269 270 272 274 276 278 279 281 283 285 287 288 289 290 291 293